OBJECT J, 69636

Orbit data source: Space-Track

You're viewing an Uncataloged Satellite

Recently launched and/or uncataloged satellites may have evolving metadata. Metadata may include but not limited to: Owner, Maufacturer, Bus, Motor, and Mission.

OBJECT J, 69636 is a satellite owned by Centispace (CN) in LEO that was launched on Wed, 17 Jun 2026 UTC via a KUAIZHOU-11 launch vehicle from the Jiuquan Satellite Launch Center, China (JSC). Unknown objects in Earth's orbit typically refer to objects detected orbiting the Earth but have not yet been identified or cataloged. These objects could be anything from previously untracked satellites, spent rocket stages, debris from satellite collisions, or even natural meteoroids temporarily captured by Earth's gravity.

Loading next visibility...
Identifier
69636, 2026-138J
Orbit
LEO
Country
Flag of CNCN / PRC
Related business
Manufacturer
HITSAT
Mission
Operational spacecraft
Bus & Motor
WK01H, Unknown motor
Mass
140 kg wet, 140 kg dry
Launch date (UTC)
2026-06-17 (3 days ago)
Launch vehicle
KUAIZHOU-11
Launch site
Jiuquan Satellite Launch Center, China (JSC)
Object type
Unknown
Shape & HBR
Unknown
Radar Cross Section
RCS unknown

Expand to show TLE details & history
Last TLE update: 13 hours ago

TLE from 13 hours ago
0 OBJECT J
1 69636U 26138J   26171.24768964 -.00000175  00000-0 -10629-4 0  9990
2 69636  55.1436 269.8423 0008316 285.1672  74.8383 14.15929123   425
Epoch: 2026-06-20T05:56Z
TLE epoch observation values (Epoch: 2026-06-20T05:56:40.384Z)
Latitude
Longitude
-87.79101°
Altitude
838.643 km
Speed
7.435 km/s
True Right ascension
17h 59m 22s
True Declination
0° 00' 00"
Sunlit
Object was in full shadow at epoch
Visualization orbit readout
Latitude
Unknown
Longitude
Unknown
Altitude
Unknown
Speed
Unknown
Apparent Right ascension
Unknown
Apparent Declination
Unknown
Sunlit
N/A
Visualization observer readout
Local Sidereal Time
05:55:37
Azimuth
Unknown
Elevation
Unknown
Doppler factor
Unknown
Orbital elements
Apogee altitude
845.098 km
Perigee altitude
833.094 km
Semi-major axis
7,217.233 km
Eccentricity
0.00083
Inclination
55.1436°
RAAN
269.8423°
Arg. of periapsis
285.1672°
True anomaly
74.9303°
Mean anomaly
74.8383°
Eccentric anomaly
74.8843°
Mean motion
3.53987 °/min
Orbital period
101.7 mins
BSTAR
-0.000010629
Loading maneuver chart data...
Computing Atmospheric mass density...
Loading historical data...
Loading historical data...
Loading historical data...
Loading historical data...
Loading historical data...
Loading historical data...
Loading historical data...

Documentation

Showing up to 5 results
|